Location: Newark
(48.8604°N, 2.3376°E)
Time: 11:01:38
(UTC+00:00)

ZACube-1 - Visible Passes

Search period start: 01 December 2021 00:00
Search period end: 11 December 2021 00:00
Orbit: 583 x 664 km, 97.6° (Epoch: 01 December)

Date Brightness Start Highest point End Pass type
(mag) Time Alt. Az. Time Alt. Az. Time Alt. Az.
01 Dec ? 03:38:18 10° NNE 03:38:27 11° NNE 03:38:27 11° NNE visible
01 Dec ? 05:14:34 10° N 05:15:42 16° NNW 05:15:42 16° NNW visible
02 Dec ? 03:56:35 10° NNE 03:56:58 12° NNE 03:56:58 12° NNE visible
02 Dec ? 05:33:24 10° NNW 05:34:12 14° NNW 05:34:12 14° NNW visible
02 Dec ? 16:33:36 10° SW 16:36:17 16° W 16:39:02 10° NW visible
03 Dec ? 04:14:58 10° NNE 04:15:30 13° NNE 04:15:30 13° NNE visible
03 Dec ? 05:52:25 10° NNW 05:52:44 11° NNW 05:52:44 11° NNW visible
03 Dec ? 16:54:01 10° W 16:55:01 11° W 16:56:01 10° WNW visible
04 Dec ? 04:33:27 10° N 04:34:02 13° N 04:34:02 13° N visible
05 Dec ? 04:52:02 10° N 04:52:34 13° N 04:52:34 13° N visible
06 Dec ? 05:10:43 10° N 05:11:06 12° N 05:11:06 12° N visible
07 Dec ? 05:29:30 10° N 05:29:39 11° NNW 05:29:39 11° NNW visible
07 Dec ? 16:29:27 10° SW 16:32:24 18° W 16:35:25 10° NW visible
08 Dec ? 16:49:29 10° WSW 16:51:07 12° W 16:52:46 10° WNW visible
